Regional Weather Roundup
Issued by NWS

Home | Current Version | Previous Version | Graphics & Text | Print | Product List | Glossary On
Versions: 1 2 3 4 5 6 7 8 9 10 11 12 13 14 15 16 17 18 19 20 21 22 23 24 25 26 27 28 29 30 31 32 33 34 35 36 37 38 39 40 41 42 43 44 45 46 47 48 49 50
000
ASUS43 KMKX 212011
RWRWI

WISCONSIN REGIONAL WEATHER ROUNDUP
NATIONAL WEATHER SERVICE MILWAUKEE/SULLIVAN WI
200 PM CST SUN JAN 21 2018

NOTE: "FAIR" INDICATES FEW OR NO CLOUDS BELOW 12,000 FEET WITH NO
SIGNIFICANT WEATHER AND/OR OBSTRUCTIONS TO VISIBILITY.

WIZ001-002-006>008-014>016-023>028-212100-
NORTHWEST WISCONSIN

CITY           SKY/WX    TMP DP  RH WIND       PRES   REMARKS
SUPERIOR ARPT  FAIR      33  29  84 NE3       30.00R
ASHLAND        FOG       29  29 100 NE8       29.99S VSB 1/4 WCI  21
HAYWARD        CLOUDY    39  28  64 CALM      29.95S
SIREN          CLOUDY    36  28  72 N5        29.97R WCI  32
CUMBERLAND     CLOUDY    36  28  75 NW3       29.94S
RICE LAKE      CLOUDY    37  30  77 N3        29.95S
CHETEK         CLOUDY    36  30  80 CALM      29.94S
LADYSMITH      CLOUDY    37  31  77 CALM      29.94F
EAU CLAIRE     CLOUDY    41  31  67 NE5       29.92S
MENOMONIE      PTSUNNY   40  30  66 N7        29.93S
NEW RICHMOND   CLOUDY    36  28  73 N7        29.94F WCI  31
OSCEOLA        CLOUDY    37  29  74 NW5       29.98F WCI  33
$$

WIZ003>005-009-010-017-018-212100-
NORTH CENTRAL WISCONSIN

CITY           SKY/WX    TMP DP  RH WIND       PRES   REMARKS
MANITOWISH WTR CLOUDY    37  30  77 CALM      29.93S
ARBOR VITAE    CLOUDY    37  32  81 CALM      29.92S
WOODRUFF       CLOUDY    37  32  81 CALM      29.92S
RHINELANDER    CLOUDY    37  32  82 E3        29.92S
EAGLE RIVER    FAIR      36  29  77 CALM      29.92S
LAND O LAKES   CLOUDY    38  31  75 CALM      29.94R
PHILLIPS       CLOUDY    37  30  76 CALM      29.91F
TOMAHAWK       CLOUDY    38  30  72 CALM      29.92F
MEDFORD        CLOUDY    41  29  61 NE5       29.90S
MERRILL        CLOUDY    43  30  59 CALM      29.91F
$$

WIZ029-030-035-036-043>047-212100-
CENTRAL WISCONSIN

CITY           SKY/WX    TMP DP  RH WIND       PRES   REMARKS
WAUSAU         FAIR      43  30  60 W3        29.88F
MOSINEE        CLOUDY    43  32  65 NE5       29.90F
MARSHFIELD     PTSUNNY   41  32  70 SE3       29.89S
STEVENS POINT  FAIR      41  31  67 E5        29.90F
WAUPACA        FAIR      45  33  63 CALM      29.93R
WAUTOMA        FAIR      41  33  73 NE7       29.91F
WISC RAPIDS    FAIR      43  30  60 E6        29.91F
CAMP DOUGLAS   CLOUDY    45  34  65 CALM      29.88F
$$

WIZ011>013-019>022-031-037>040-048>050-212100-
NORTHEAST WISCONSIN

CITY           SKY/WX    TMP DP  RH WIND       PRES   REMARKS
ANTIGO         CLOUDY    39  31  74 N3        29.91S
SHAWANO        FAIR      44  32  64 CALM      29.92F
OCONTO         FAIR      41  32  69 NE3       29.92F
STURGEON BAY   PTSUNNY   42  34  73 SW3       29.94F
GREEN BAY      FAIR      43  33  68 CALM      29.93F
MANITOWOC      MIX PCPN  34  34 100 E5        29.94F VSB 1/4 WCI  30
APPLETON       PTSUNNY   36  28  75 CALM      29.91S FOG
CLINTONVILLE   FAIR      41  32  70 CALM      29.92S
OSHKOSH        FOG       33  33 100 E3        29.91F VSB<1/4
$$

WIZ032>034-041-042-053>061-212100-
SOUTHWEST WISCONSIN

CITY           SKY/WX    TMP DP  RH WIND       PRES   REMARKS
LA CROSSE      PTSUNNY   36  31  82 N5        29.89F HAZE    WCI  32
SPARTA         FAIR      43  34  69 E6        29.90S
VIROQUA        CLOUDY    40  37  87 E6        29.86F
BOSCOBEL       CLOUDY    34  33  96 CALM      29.89F FOG
PRAIRIE DU CHI CLOUDY    32  31  96 CALM      29.87F FOG
PLATTEVILLE    FAIR      38  38 100 E9        29.85F WCI  31
$$

WIZ056-057-062-063-064-067-068-212100-
SOUTH CENTRAL WISCONSIN

CITY           SKY/WX    TMP DP  RH WIND       PRES   REMARKS
REEDSBURG      CLOUDY    38  35  89 CALM      29.88F
BARABOO/DELLS  CLOUDY    38  33  81 E3        29.89F
LONE ROCK      CLOUDY    34  34 100 CALM      29.89F FOG
MINERAL POINT  CLOUDY    41  41 100 E8        29.85F FOG
MADISON        CLOUDY    38  36  92 NE5       29.90F FOG     WCI  34
MIDDLETON      CLOUDY    38  37  93 CALM      29.89F
WATERTOWN      CLOUDY    38  38 100 CALM      29.89F FOG
MONROE         FOG       36  36 100 NE5       29.86S VSB 1   WCI  32
JANESVILLE     CLOUDY    39  39 100 NE5       29.88F FOG
$$

WIZ051-052-058>065-066-070>072-212100-
SOUTHEAST WISCONSIN

CITY           SKY/WX    TMP DP  RH WIND       PRES   REMARKS
MILWAUKEE      DRIZZLE   39  36  89 N3        29.91F FOG
WAUKESHA       CLOUDY    37  36  93 E5        29.91F FOG     WCI  34
MILWAUKEE/TIMM DRIZZLE   37  34  87 NE5       29.92F FOG     WCI  34
RACINE         CLOUDY    37  36  96 SE3       29.93S FOG
BURLINGTON     PTSUNNY   38  37  95 E5        29.90F FOG     WCI  34
KENOSHA        CLOUDY    38  35  89 NE7       29.90F FOG     WCI  33
FOND DU LAC    FOG       36  34  92 NE5       29.91F VSB<1/4 WCI  32
SHEBOYGAN      FOG       35  35 100 CALM      29.93F VSB 3/4
WEST BEND      CLOUDY    36  36 100 NE3       29.91F FOG
JUNEAU         CLOUDY    37  37  98 CALM      29.91F FOG
$$

LSZ147-162-212100-
LAKE SUPERIOR

STATION/POSITION TIME  TEMP    WIND        PRES    WAVE
                       AIR SEA DIR/SP/G            HT/PER
                 (UTC) (F)     (DEG/KT/KT) (MB)    (FT/S)
DEVILS ISLAND    2000   29      30/  8/ 10 1017.4R
SAXON HARBOR     1940   30      30/  4/  7 1015.2S
$$

LMZ867-665-643>646-212100-
LAKE MICHIGAN

STATION/POSITION TIME  TEMP    WIND        PRES    WAVE
                       AIR SEA DIR/SP/G            HT/PER
                 (UTC) (F)     (DEG/KT/KT) (MB)    (FT/S)
NORTHPORT PIER   1940   34     120/  2/  4 1014.2F
KEWAUNEE LAKESHO 1948   33     160/  6/  7 1013.3F
SHEBOYGAN LAKESH 2000   34      10/  3/  3 1014.0F
PORT WASHINGTON  1940   35      30/  4/  5 1014.2F
MILWAUKEE LAKESH 1950   36      30/  5/  5   N/A
KENOSHA   LAKESH 2000   34      50/  4/  4 1012.9
$$

TC  - TEMPERATURE IN CELSIUS
VSB - VISIBILITY IN STATUTE MILES
WCI - WIND CHILL INDEX
HX  - HEAT INDEX





USA.gov is the U.S. government's official web portal to all federal, state and local government web resources and services.